Location: Tuttlingen
(47.9853°N, 8.8165°E)
Time: 06:02:40
(UTC+02:00)

ISS - Visible Passes

Search period start: 26 May 2018 00:00
Search period end: 05 June 2018 00:00
Orbit: 402 x 407 km, 51.6° (Epoch: 26 May)

Date Brightness Start Highest point End Pass type
(mag) Time Alt. Az. Time Alt. Az. Time Alt. Az.
26 May -3.5 01:13:56 10° WNW 01:17:11 65° NNE 01:17:14 65° NNE visible
26 May -2.7 22:44:55 10° W 22:48:05 45° N 22:51:15 10° ENE visible
27 May -3.0 00:21:43 10° WNW 00:24:56 50° NNE 00:26:26 26° ENE visible
27 May -1.5 01:58:15 10° WNW 01:59:03 16° WNW 01:59:03 16° WNW visible
27 May -3.0 21:52:34 10° W 21:55:47 54° NNW 21:59:00 10° ENE visible
27 May -2.7 23:29:27 10° WNW 23:32:37 43° N 23:35:42 10° E visible
28 May -3.0 01:06:00 10° WNW 01:08:20 43° WNW 01:08:20 43° WNW visible
28 May -2.5 22:37:08 10° WNW 22:40:16 41° N 22:43:25 10° ENE visible
29 May -3.7 00:13:46 10° WNW 00:17:02 73° NNE 00:17:40 53° E visible
29 May -3.2 23:21:31 10° WNW 23:24:45 55° NNE 23:27:03 17° E visible
30 May -2.1 00:58:05 10° WNW 00:59:41 24° W 00:59:41 24° W visible
30 May -2.8 22:29:14 10° WNW 22:32:24 45° N 22:35:35 10° E visible
31 May -3.9 00:05:46 10° WNW 00:09:01 66° SSW 00:09:05 65° SSW visible
31 May -3.8 23:13:29 10° WNW 23:16:46 83° NNE 23:18:32 25° ESE visible
01 Jun -1.4 00:50:25 10° W 00:51:09 14° W 00:51:09 14° W visible
01 Jun -3.4 22:21:12 10° WNW 22:24:27 60° NNE 22:27:42 10° E visible
01 Jun -2.9 23:57:50 10° WNW 00:00:36 33° SW 00:00:36 33° SW visible
02 Jun -3.6 23:05:25 10° WNW 23:08:38 55° SSW 23:10:04 28° SE visible
03 Jun -3.9 22:13:06 10° WNW 22:16:23 86° SSW 22:19:35 10° ESE visible
03 Jun -1.9 23:50:13 10° W 23:52:13 17° SW 23:52:13 17° SW visible
04 Jun -2.6 22:57:28 10° W 23:00:21 28° SW 23:01:45 20° S visible
